Weather History for Apalachicola, FL

Change the Weather History Date:

Monday, December 31, 2012

  Actual Average Record
Temperature  
Mean Temperature 51 °F 53 °F  
Max Temperature 63 °F 63 °F 77 °F (2005)
Min Temperature 38 °F 42 °F 23 °F (1983)
Degree Days  
Heating Degree Days 14    
Month to date heating degree days 245  
Since 1 July heating degree days 448  
Cooling Degree Days 0    
Month to date cooling degree days 12  
Year to date cooling degree days 2770  
Growing Degree Days 1 (Base 50)    
Moisture  
Dew Point 45 °F    
Average Humidity 76    
Maximum Humidity 87    
Minimum Humidity 65    
Precipitation  
Precipitation 0.00 in 0.11 in 2.66 in (1931)
Month to date precipitation 1.83 3.31  
Year to date precipitation 57.46 57.70  
Sea Level Pressure  
Sea Level Pressure 30.29 in    
Wind  
Wind Speed 7 mph (East)    
Max Wind Speed 12 mph    
Max Gust Speed 15 mph    
Visibility 10 miles    
Events      
T = Trace of Precipitation, MM = Missing Value Source: NWS Daily Summary

Daily Weather History Graph

Daily Weather History Graph

Search for Another Location

Airport:

Trip Planner

Search our weather history database for the weather conditions in past years. The results will help you decide how hot, cold, wet, or windy it might be!

Date:

Astronomy

Dec. 31, 2012 Rise Set
Actual Time 7:35 AM EST 5:51 PM EST
Civil Twilight 7:09 AM EST 6:17 PM EST
Nautical Twilight 6:39 AM EST 6:47 PM EST
Astronomical Twilight 6:10 AM EST 7:16 PM EST
Moon 9:05 PM EST (12/31) 9:30 AM EST (12/31)
Length of Visible Light 11h 08m
Length of Day
10h 16m
Waning Gibbous, 90% of the Moon is Illuminated
Dec 31
Waning Gibbous
Jan 4
Last Quarter
Jan 11
New
Jan 18
First Quarter
Jan 26
Full

Hourly Weather History & Observations

Time (EST) Temp. Windchill Dew Point Humidity Pressure Visibility Wind Dir Wind Speed Gust Speed Precip Events Conditions
12:53 AM 41.0 °F 36.4 °F 30.9 °F 67% 30.37 in 10.0 mi ENE 6.9 mph - N/A   Clear
1:53 AM 41.0 °F 35.8 °F 32.0 °F 70% 30.35 in 10.0 mi ENE 8.1 mph - N/A   Clear
2:53 AM 39.0 °F 33.4 °F 33.1 °F 79% 30.35 in 10.0 mi NE 8.1 mph - N/A   Clear
3:53 AM 39.0 °F 34.8 °F 34.0 °F 82% 30.35 in 10.0 mi NNE 5.8 mph - N/A   Clear
4:26 AM 39.2 °F 34.2 °F 33.8 °F 81% 30.33 in 10.0 mi NE 6.9 mph - N/A   Mostly Cloudy
4:33 AM 39.2 °F 35.0 °F 33.8 °F 81% 30.33 in 10.0 mi NE 5.8 mph - N/A   Scattered Clouds
4:53 AM 39.0 °F 34.0 °F 34.0 °F 82% 30.33 in 10.0 mi NE 6.9 mph - N/A   Clear
5:42 AM 39.2 °F 35.0 °F 35.6 °F 87% 30.33 in 10.0 mi NE 5.8 mph - N/A   Mostly Cloudy
5:53 AM 41.0 °F 37.1 °F 36.0 °F 82% 30.33 in 10.0 mi NE 5.8 mph - N/A   Overcast
6:53 AM 42.1 °F 37.7 °F 37.0 °F 82% 30.33 in 10.0 mi NE 6.9 mph - N/A   Overcast
7:53 AM 44.1 °F 40.1 °F 39.0 °F 82% 30.37 in 10.0 mi NE 6.9 mph - N/A   Overcast
8:53 AM 48.9 °F - 44.1 °F 83% 30.32 in 10.0 mi East 8.1 mph - N/A   Overcast
9:53 AM 53.1 °F - 46.9 °F 80% 30.35 in 10.0 mi ENE 5.8 mph - N/A   Overcast
10:53 AM 55.9 °F - 48.9 °F 77% 30.35 in 10.0 mi ESE 9.2 mph - N/A   Overcast
11:53 AM 59.0 °F - 50.0 °F 72% 30.33 in 10.0 mi East 9.2 mph - N/A   Overcast
12:53 PM 60.1 °F - 51.1 °F 72% 30.30 in 10.0 mi ESE 6.9 mph - N/A   Mostly Cloudy
1:53 PM 61.0 °F - 52.0 °F 72% 30.27 in 10.0 mi East 3.5 mph - N/A   Overcast
2:49 PM 62.6 °F - 51.8 °F 68% 30.26 in 10.0 mi Variable 4.6 mph - N/A   Scattered Clouds
2:53 PM 63.0 °F - 52.0 °F 67% 30.25 in 10.0 mi East 4.6 mph - N/A   Partly Cloudy
3:53 PM 61.0 °F - 52.0 °F 72% 30.24 in 10.0 mi East 4.6 mph - N/A   Overcast
4:53 PM 61.0 °F - 53.1 °F 75% 30.23 in 10.0 mi East 5.8 mph - N/A   Overcast
5:53 PM 60.1 °F - 53.1 °F 78% 30.22 in 10.0 mi East 3.5 mph - N/A   Overcast
6:53 PM 57.9 °F - 52.0 °F 81% 30.22 in 10.0 mi East 5.8 mph - N/A   Mostly Cloudy
7:53 PM 57.0 °F - 52.0 °F 83% 30.22 in 10.0 mi East 5.8 mph - N/A   Overcast
8:53 PM 57.0 °F - 53.1 °F 87% 30.23 in 10.0 mi ESE 6.9 mph - N/A   Scattered Clouds
9:53 PM 59.0 °F - 54.0 °F 83% 30.23 in 10.0 mi SE 8.1 mph - N/A   Overcast
10:53 PM 59.0 °F - 55.0 °F 87% 30.22 in 10.0 mi SE 10.4 mph - N/A   Clear
11:53 PM 60.1 °F - 54.0 °F 80% 30.20 in 10.0 mi SE 9.2 mph - N/A   Scattered Clouds